TimeEST,TemperatureF,Dew PointF,Humidity,Sea Level PressureIn,VisibilityMPH,Wind Direction,Wind SpeedMPH,Gust SpeedMPH,PrecipitationIn,Events,Conditions,WindDirDegrees,DateUTC
12:14 AM,35.8,34.2,94,30.19,4.0,East,8.1,-,N/A,,Overcast,80,2012-12-01 05:14:00
12:34 AM,35.6,34.0,94,30.20,4.0,East,9.2,-,N/A,,Overcast,90,2012-12-01 05:34:00
12:54 AM,35.6,33.8,93,30.20,4.0,East,8.1,-,N/A,,Overcast,90,2012-12-01 05:54:00
1:15 AM,35.6,33.8,93,30.20,4.0,East,8.1,-,N/A,,Overcast,100,2012-12-01 06:15:00
1:34 AM,35.2,33.8,94,30.20,4.0,East,8.1,-,N/A,,Overcast,90,2012-12-01 06:34:00
1:55 AM,35.2,33.8,94,30.21,4.0,ENE,6.9,-,N/A,,Overcast,70,2012-12-01 06:55:00
2:14 AM,35.1,33.6,94,30.21,4.0,East,8.1,-,N/A,,Overcast,90,2012-12-01 07:14:00
2:35 AM,35.1,33.3,93,30.20,4.0,East,8.1,-,N/A,,Overcast,80,2012-12-01 07:35:00
3:14 AM,34.7,32.9,93,30.19,4.0,East,8.1,-,N/A,,Overcast,80,2012-12-01 08:14:00
4:15 AM,34.2,32.2,92,30.20,5.0,ENE,9.2,-,N/A,,Overcast,70,2012-12-01 09:15:00
4:34 AM,34.2,32.4,93,30.19,5.0,East,6.9,-,N/A,,Overcast,80,2012-12-01 09:34:00
4:55 AM,34.2,32.4,93,30.18,4.0,East,6.9,-,N/A,,Overcast,80,2012-12-01 09:55:00
5:14 AM,34.0,32.2,93,30.18,4.0,East,11.5,17.3,N/A,,Overcast,90,2012-12-01 10:14:00
5:34 AM,33.8,32.0,93,30.17,4.0,East,9.2,-,N/A,,Overcast,90,2012-12-01 10:34:00
5:54 AM,33.8,32.2,94,30.17,4.0,East,9.2,-,N/A,,Overcast,90,2012-12-01 10:54:00
6:15 AM,33.6,32.0,94,30.17,4.0,East,10.4,-,N/A,,Overcast,90,2012-12-01 11:15:00
7:34 AM,32.9,32.0,96,30.19,3.0,East,11.5,16.1,N/A,,Overcast,90,2012-12-01 12:34:00
8:15 AM,32.9,32.0,96,30.17,2.5,East,10.4,18.4,N/A,,Overcast,90,2012-12-01 13:15:00
8:34 AM,32.9,32.0,96,30.16,1.5,East,11.5,18.4,N/A,,Overcast,100,2012-12-01 13:34:00
9:14 AM,32.9,32.5,99,30.16,1.0,East,11.5,16.1,N/A,,Overcast,100,2012-12-01 14:14:00
9:35 AM,33.3,32.9,99,30.16,1.2,East,8.1,-,N/A,,Overcast,80,2012-12-01 14:35:00
9:54 AM,33.8,33.1,97,30.15,1.5,East,11.5,16.1,N/A,,Overcast,90,2012-12-01 14:54:00
10:15 AM,34.0,33.4,98,30.15,1.5,East,8.1,-,N/A,,Overcast,90,2012-12-01 15:15:00
10:34 AM,34.7,33.8,97,30.15,1.8,East,9.2,-,N/A,,Overcast,90,2012-12-01 15:34:00
10:54 AM,35.2,34.2,96,30.15,2.0,East,10.4,-,N/A,,Overcast,90,2012-12-01 15:54:00
11:15 AM,35.8,34.7,96,30.13,2.0,East,11.5,-,N/A,,Overcast,100,2012-12-01 16:15:00
11:34 AM,36.7,35.2,95,30.13,2.5,East,9.2,-,N/A,,Overcast,100,2012-12-01 16:34:00
11:54 AM,37.4,35.6,93,30.11,2.5,East,8.1,-,N/A,,Overcast,100,2012-12-01 16:54:00
12:15 PM,38.3,36.1,92,30.10,3.0,East,9.2,-,N/A,,Overcast,100,2012-12-01 17:15:00
12:34 PM,38.7,36.5,92,30.08,3.0,ESE,11.5,16.1,N/A,,Overcast,110,2012-12-01 17:34:00
12:55 PM,39.4,36.9,91,30.07,3.0,ESE,10.4,-,N/A,,Overcast,110,2012-12-01 17:55:00
1:15 PM,40.1,37.4,90,30.05,4.0,ESE,6.9,-,N/A,,Overcast,110,2012-12-01 18:15:00
1:34 PM,41.4,37.8,87,30.04,4.0,ESE,11.5,-,N/A,,Overcast,110,2012-12-01 18:34:00
1:55 PM,42.1,38.1,86,30.03,4.0,ESE,10.4,-,N/A,,Overcast,110,2012-12-01 18:55:00
2:14 PM,43.0,38.1,83,30.03,4.0,ESE,8.1,-,N/A,,Haze,110,2012-12-01 19:14:00
2:35 PM,44.1,38.1,80,30.03,5.0,ESE,5.8,-,N/A,,Haze,120,2012-12-01 19:35:00
2:54 PM,44.6,37.9,77,30.02,5.0,ESE,6.9,-,N/A,,Haze,120,2012-12-01 19:54:00
3:15 PM,45.0,38.3,77,30.00,5.0,ESE,5.8,-,N/A,,Haze,120,2012-12-01 20:15:00
3:34 PM,45.1,38.5,77,30.00,5.0,ESE,6.9,-,N/A,,Haze,110,2012-12-01 20:34:00
4:14 PM,45.7,39.2,78,30.00,5.0,ESE,4.6,-,N/A,,Haze,120,2012-12-01 21:14:00
4:34 PM,45.9,39.2,78,29.99,5.0,ESE,5.8,-,N/A,,Haze,110,2012-12-01 21:34:00
4:54 PM,45.9,39.4,78,29.98,5.0,ESE,5.8,-,N/A,,Haze,110,2012-12-01 21:54:00
5:14 PM,46.0,39.6,78,29.98,7.0,ESE,5.8,-,N/A,,Overcast,110,2012-12-01 22:14:00
5:35 PM,46.4,40.1,79,29.97,7.0,East,6.9,-,N/A,,Overcast,100,2012-12-01 22:35:00
5:54 PM,46.8,40.3,78,29.95,7.0,East,6.9,-,N/A,,Overcast,100,2012-12-01 22:54:00
6:15 PM,47.3,41.0,79,29.95,7.0,ESE,5.8,-,N/A,,Overcast,110,2012-12-01 23:15:00
6:54 PM,48.2,41.5,78,29.93,7.0,ESE,5.8,-,N/A,,Overcast,110,2012-12-01 23:54:00
7:14 PM,48.6,42.1,78,29.92,7.0,ESE,4.6,-,N/A,,Overcast,120,2012-12-02 00:14:00
7:34 PM,48.4,43.9,84,29.91,7.0,ESE,5.8,-,N/A,,Overcast,120,2012-12-02 00:34:00
7:55 PM,49.6,45.1,84,29.89,7.0,SE,8.1,16.1,N/A,Rain,Light Rain,130,2012-12-02 00:55:00
8:14 PM,49.6,45.7,86,29.88,7.0,SE,10.4,-,N/A,,Drizzle,130,2012-12-02 01:14:00
8:35 PM,50.4,47.1,89,29.88,7.0,SSE,6.9,-,N/A,,Overcast,150,2012-12-02 01:35:00
8:54 PM,51.3,48.4,90,29.90,5.0,West,8.1,-,N/A,Rain,Rain,280,2012-12-02 01:54:00
9:15 PM,49.6,48.4,95,29.88,2.0,SE,11.5,17.3,N/A,Rain,Heavy Rain,140,2012-12-02 02:15:00
9:34 PM,50.5,49.5,96,29.86,3.0,East,4.6,-,N/A,Rain,Rain,90,2012-12-02 02:34:00
9:55 PM,49.8,48.9,97,29.87,3.0,Calm,Calm,-,N/A,Rain,Light Rain,0,2012-12-02 02:55:00
10:14 PM,50.9,50.2,97,29.86,4.0,SSE,3.5,-,N/A,Rain,Rain,150,2012-12-02 03:14:00
10:35 PM,54.9,51.1,87,29.86,7.0,SSW,19.6,40.3,N/A,Rain,Rain,200,2012-12-02 03:35:00
10:54 PM,54.7,50.7,86,29.86,10.0,South,17.3,27.6,N/A,,Overcast,190,2012-12-02 03:54:00
11:15 PM,55.4,50.0,82,29.85,10.0,SSW,21.9,33.4,N/A,,Overcast,200,2012-12-02 04:15:00
11:34 PM,55.4,49.6,81,29.86,10.0,SSW,20.7,34.5,N/A,,Overcast,200,2012-12-02 04:34:00
11:54 PM,54.5,50.2,85,29.85,7.0,South,23.0,34.5,N/A,Rain,Rain,190,2012-12-02 04:54:00